Find Starlink 36530

NORAD ID: 67514 Int'l Des: 2026-012 Owner: SPXS Country: US Constellation: starlink operational
LEOCIRCULAR

Aktuelle Ansicht

3D-Globus wird geladen...

Über Starlink 36530

Beschreibung wird geladen...

Nächste Überflüge

Passes for default location (London). Set your location on the main map for personalized predictions.

Höhenverlauf

Loading altitude history...

Zweizeiliger Elementsatz

1 67514U 26012X 26150.50347492 .00024712 00000-0 90381-3 0 9992
2 67514 43.0041 212.4132 0002499 268.8655 91.1910 15.27605345 20276
Epoch: 30. Mai 2026 • Age: 5 hours

Aktueller Status

Höhe 487.6 km
Geschwindigkeit 7.63 km/s
Subsatellitenpunkt 42.46°N, 167.31°E
Startdatum 18. Jan. 2026
Alter 0.3 years
Typ internet

Technische Details

Klassifizierung Payload
Masse 575.00 kg
Trockenmasse 530.00 kg
Gesamtmasse 575.00 kg
Länge 0.30 m
Durchmesser 4.10 m
Spannweite 29.00 m
Form Box + pan
Hersteller SPXS
Bus-Typ Starlink V2MO
Phasenstatus In Orbit
Besitzer/Staat SPXS/US

Most Searched